Location: 5810 Zion Rd, Cleves, OH 45002, USA
(39.1922°N, 84.7113°W)
Time: 22:01:31
(UTC-05:00)

Vanguard 1 - All Passes

Search period start: 09 December 2019 00:00
Search period end: 19 December 2019 00:00
Orbit: 652 x 3832 km, 34.3° (Epoch: 09 December)

Date Brightness Start Highest point End Pass type
(mag) Time Alt. Az. Time Alt. Az. Time Alt. Az.
09 Dec - 01:58:42 10° S 02:15:12 27° SE 02:31:42 10° E visible
09 Dec - 04:17:22 10° SW 04:39:43 55° SSE 04:57:51 10° E visible
09 Dec - 06:42:30 10° WSW 07:05:31 74° S 07:20:00 10° E visible
09 Dec - 09:10:44 10° W 09:29:46 65° SSW 09:40:10 10° ESE daylight
09 Dec - 11:39:26 10° W 11:50:29 28° SW 11:57:24 10° SSE daylight
10 Dec - 02:17:40 10° SSW 02:35:58 34° SE 02:54:13 10° E visible
10 Dec - 04:38:06 10° SW 05:01:02 62° SSE 05:19:09 10° E visible
10 Dec - 07:04:07 10° W 07:26:59 75° S 07:41:01 10° E visible
10 Dec - 09:32:33 10° W 09:50:46 58° SSW 10:00:48 10° SE daylight
10 Dec - 12:01:57 10° W 12:10:44 21° SW 12:16:48 10° S daylight
11 Dec - 00:25:40 10° SSE 00:34:01 13° SE 00:42:51 10° ESE visible
11 Dec - 02:37:15 10° SSW 02:56:51 42° SE 03:16:14 10° E visible
11 Dec - 04:59:07 10° WSW 05:22:27 68° SSE 05:40:23 10° E visible
11 Dec - 07:25:50 10° W 07:48:24 75° S 08:02:00 10° ESE daylight
11 Dec - 09:54:24 10° W 10:11:35 50° SSW 10:21:16 10° SE daylight
11 Dec - 12:25:29 10° W 12:30:51 14° SW 12:35:07 10° SSW daylight
12 Dec - 00:41:42 10° SSE 00:54:27 20° SE 01:08:30 10° E visible
12 Dec - 02:57:17 10° SW 03:17:52 49° SSE 03:37:56 10° E visible
12 Dec - 05:20:20 10° WSW 05:43:57 72° SSE 06:01:35 10° E visible
12 Dec - 07:47:35 10° W 08:09:45 72° SSW 08:22:54 10° ESE daylight
12 Dec - 10:16:20 10° W 10:32:13 41° SW 10:41:31 10° SSE daylight
13 Dec - 00:59:47 10° S 01:14:58 27° SE 01:32:02 10° E visible
13 Dec - 03:17:40 10° SW 03:39:01 57° SSE 03:59:28 10° E visible
13 Dec - 05:41:44 10° WSW 06:05:30 75° S 06:22:45 10° E visible
13 Dec - 08:09:22 10° W 08:30:59 67° SSW 08:43:43 10° ESE daylight
13 Dec - 10:38:28 10° W 10:52:40 33° SW 11:01:26 10° SSE daylight
14 Dec - 01:18:49 10° SSW 01:35:33 34° SE 01:54:39 10° E visible
14 Dec - 03:38:21 10° SW 04:00:18 63° SSE 04:20:53 10° E visible
14 Dec - 06:03:16 10° W 06:27:04 76° S 06:43:52 10° E visible
14 Dec - 08:31:10 10° W 08:52:04 60° SSW 09:04:23 10° SE daylight
14 Dec - 11:00:57 10° W 11:12:56 25° SW 11:20:56 10° S daylight
14 Dec - 23:27:53 10° SE 23:34:25 12° ESE 23:41:36 10° ESE visible
15 Dec - 01:38:25 10° SSW 01:56:17 42° SE 02:16:47 10° E visible
15 Dec - 03:59:18 10° WSW 04:21:43 69° SSE 04:42:14 10° E visible
15 Dec - 06:24:53 10° W 06:48:35 76° S 07:04:56 10° ESE visible
15 Dec - 08:53:01 10° W 09:12:58 53° SSW 09:24:53 10° SE daylight
15 Dec - 11:24:11 10° W 11:33:04 18° SW 11:39:39 10° SSW daylight
15 Dec - 23:43:38 10° SSE 23:54:40 19° SE 00:07:45 10° E visible
16 Dec - 01:58:28 10° SW 02:17:09 50° SE 02:38:36 10° E visible
16 Dec - 04:20:26 10° WSW 04:43:15 73° SSE 05:03:33 10° E visible
16 Dec - 06:46:33 10° W 07:10:04 73° SSW 07:25:55 10° ESE visible
16 Dec - 09:14:57 10° W 09:33:41 44° SW 09:45:09 10° SSE daylight
16 Dec - 11:49:47 10° WSW 11:53:06 11° WSW 11:56:03 10° SW daylight
17 Dec - 00:01:44 10° S 00:14:58 26° SE 00:31:29 10° E visible
17 Dec - 02:18:50 10° SW 02:38:12 57° SSE 03:00:15 10° E visible
17 Dec - 04:41:43 10° WSW 05:04:51 76° S 05:24:50 10° E visible
17 Dec - 07:08:15 10° W 07:31:24 68° SSW 07:46:47 10° ESE visible
17 Dec - 09:37:04 10° W 09:54:11 36° SW 10:05:06 10° SSE daylight
18 Dec - 00:20:47 10° SSW 00:35:23 33° SE 00:54:14 10° E visible
18 Dec - 02:39:27 10° SW 02:59:25 64° SSE 03:21:48 10° E visible
18 Dec - 05:03:08 10° W 05:26:30 77° S 05:46:04 10° E visible
18 Dec - 07:29:59 10° W 07:52:36 62° SSW 08:07:31 10° SE daylight
18 Dec - 09:59:31 10° W 10:14:32 28° SW 10:24:39 10° S daylight
18 Dec - 22:32:00 10° SE 22:35:12 11° ESE 22:38:36 10° ESE night (unlit)
